Year,Month,Day,Hour,Minute,Value (Times are PST for temperature in C)
2018,07,04,00,00,13.30
2018,07,04,00,01,13.30
2018,07,04,00,02,13.30
2018,07,04,00,03,13.30
2018,07,04,00,04,13.30
2018,07,04,00,05,13.30
2018,07,04,00,06,13.30
2018,07,04,00,07,13.30
2018,07,04,00,08,13.30
2018,07,04,00,09,13.30
2018,07,04,00,10,13.30
2018,07,04,00,11,13.30
2018,07,04,00,12,13.30
2018,07,04,00,13,13.30
2018,07,04,00,14,13.30
2018,07,04,00,15,13.30
2018,07,04,00,16,13.30
2018,07,04,00,17,13.30
2018,07,04,00,18,13.30
2018,07,04,00,19,13.40
2018,07,04,00,20,13.40
2018,07,04,00,21,13.50
2018,07,04,00,22,13.50
2018,07,04,00,23,13.60
2018,07,04,00,24,13.60
2018,07,04,00,25,13.70
2018,07,04,00,26,13.70
2018,07,04,00,27,13.80
2018,07,04,00,28,13.80
2018,07,04,00,29,13.80
2018,07,04,00,30,13.70
2018,07,04,00,31,13.70
2018,07,04,00,32,13.70
2018,07,04,00,33,13.60
2018,07,04,00,34,13.60
2018,07,04,00,35,13.60
2018,07,04,00,36,13.60
2018,07,04,00,37,13.60
2018,07,04,00,38,13.60
2018,07,04,00,39,13.60
2018,07,04,00,40,13.60
2018,07,04,00,41,13.60
2018,07,04,00,42,13.60
2018,07,04,00,43,13.60
2018,07,04,00,44,13.60
2018,07,04,00,45,13.60
2018,07,04,00,46,13.60
2018,07,04,00,47,13.60
2018,07,04,00,48,13.60
2018,07,04,00,49,13.70
2018,07,04,00,50,13.70
2018,07,04,00,51,13.70
2018,07,04,00,52,13.70
2018,07,04,00,53,13.70
2018,07,04,00,54,13.70
2018,07,04,00,55,13.70
2018,07,04,00,56,13.70
2018,07,04,00,57,13.70
2018,07,04,00,58,13.70
2018,07,04,00,59,13.60
2018,07,04,01,00,13.60
2018,07,04,01,01,13.60
2018,07,04,01,02,13.50
2018,07,04,01,03,13.50
2018,07,04,01,04,13.50
2018,07,04,01,05,13.40
2018,07,04,01,06,13.40
2018,07,04,01,07,13.30
2018,07,04,01,08,13.30
2018,07,04,01,09,13.30
2018,07,04,01,10,13.30
2018,07,04,01,11,13.30
2018,07,04,01,12,13.30
2018,07,04,01,13,13.30
2018,07,04,01,14,13.30
2018,07,04,01,15,13.30
2018,07,04,01,16,13.30
2018,07,04,01,17,13.30
2018,07,04,01,18,13.30
2018,07,04,01,19,13.30
2018,07,04,01,20,13.30
2018,07,04,01,21,13.30
2018,07,04,01,22,13.30
2018,07,04,01,23,13.20
2018,07,04,01,24,13.20
2018,07,04,01,25,13.20
2018,07,04,01,26,13.20
2018,07,04,01,27,13.20
2018,07,04,01,28,13.20
2018,07,04,01,29,13.20
2018,07,04,01,30,13.20
2018,07,04,01,31,13.10
2018,07,04,01,32,13.10
2018,07,04,01,33,13.10
2018,07,04,01,34,13.10
2018,07,04,01,35,13.10
2018,07,04,01,36,13.10
2018,07,04,01,37,13.10
2018,07,04,01,38,13.10
2018,07,04,01,39,13.10
2018,07,04,01,40,13.10
2018,07,04,01,41,13.10
2018,07,04,01,42,13.10
2018,07,04,01,43,13.10
2018,07,04,01,44,13.10
2018,07,04,01,45,13.10
2018,07,04,01,46,13.10
2018,07,04,01,47,13.10
2018,07,04,01,48,13.00
2018,07,04,01,49,13.00
2018,07,04,01,50,13.00
2018,07,04,01,51,13.00
2018,07,04,01,52,12.90
2018,07,04,01,53,12.90
2018,07,04,01,54,12.90
2018,07,04,01,55,12.90
2018,07,04,01,56,12.80
2018,07,04,01,57,12.80
2018,07,04,01,58,12.80
2018,07,04,01,59,12.80
2018,07,04,02,00,12.70
2018,07,04,02,01,12.70
2018,07,04,02,02,12.70
2018,07,04,02,03,12.70
2018,07,04,02,04,12.70
2018,07,04,02,05,12.70
2018,07,04,02,06,12.70
2018,07,04,02,07,12.70
2018,07,04,02,08,12.60
2018,07,04,02,09,12.60
2018,07,04,02,10,12.60
2018,07,04,02,11,12.60
2018,07,04,02,12,12.60
2018,07,04,02,13,12.60
2018,07,04,02,14,12.60
2018,07,04,02,15,12.60
2018,07,04,02,16,12.60
2018,07,04,02,17,12.60
2018,07,04,02,18,12.60
2018,07,04,02,19,12.60
2018,07,04,02,20,12.60
2018,07,04,02,21,12.60
2018,07,04,02,22,12.60
2018,07,04,02,23,12.60
2018,07,04,02,24,12.60
2018,07,04,02,25,12.70
2018,07,04,02,26,12.70
2018,07,04,02,27,12.70
2018,07,04,02,28,12.80
2018,07,04,02,29,12.80
2018,07,04,02,30,12.80
2018,07,04,02,31,12.90
2018,07,04,02,32,12.90
2018,07,04,02,33,12.90
2018,07,04,02,34,13.00
2018,07,04,02,35,13.10
2018,07,04,02,36,13.10
2018,07,04,02,37,13.10
2018,07,04,02,38,13.10
2018,07,04,02,39,13.10
2018,07,04,02,40,13.10
2018,07,04,02,41,13.10
2018,07,04,02,42,13.10
2018,07,04,02,43,13.10
2018,07,04,02,44,13.10
2018,07,04,02,45,13.10
2018,07,04,02,46,13.10
2018,07,04,02,47,13.10
2018,07,04,02,48,13.10
2018,07,04,02,49,13.10
2018,07,04,02,50,13.10
2018,07,04,02,51,13.10
2018,07,04,02,52,13.10
2018,07,04,02,53,13.10
2018,07,04,02,54,13.20
2018,07,04,02,55,13.20
2018,07,04,02,56,13.20
2018,07,04,02,57,13.20
2018,07,04,02,58,13.20
2018,07,04,02,59,13.10
2018,07,04,03,00,13.10
2018,07,04,03,01,13.10
2018,07,04,03,02,13.10
2018,07,04,03,03,13.10
2018,07,04,03,04,13.10
2018,07,04,03,05,13.10
2018,07,04,03,06,13.10
2018,07,04,03,07,13.00
2018,07,04,03,08,13.00
2018,07,04,03,09,13.00
2018,07,04,03,10,13.10
2018,07,04,03,11,13.10
2018,07,04,03,12,13.10
2018,07,04,03,13,13.10
2018,07,04,03,14,13.10
2018,07,04,03,15,13.10
2018,07,04,03,16,13.10
2018,07,04,03,17,13.10
2018,07,04,03,18,13.10
2018,07,04,03,19,13.10
2018,07,04,03,20,13.10
2018,07,04,03,21,13.10
2018,07,04,03,22,13.10
2018,07,04,03,23,13.10
2018,07,04,03,24,13.10
2018,07,04,03,25,13.10
2018,07,04,03,26,13.10
2018,07,04,03,27,13.10
2018,07,04,03,28,13.10
2018,07,04,03,29,13.10
2018,07,04,03,30,13.10
2018,07,04,03,31,13.00
2018,07,04,03,32,13.00
2018,07,04,03,33,13.00
2018,07,04,03,34,13.00
2018,07,04,03,35,13.00
2018,07,04,03,36,13.00
2018,07,04,03,37,13.00
2018,07,04,03,38,13.00
2018,07,04,03,39,13.00
2018,07,04,03,40,13.00
2018,07,04,03,41,13.00
2018,07,04,03,42,13.00
2018,07,04,03,43,13.00
2018,07,04,03,44,13.00
2018,07,04,03,45,13.00
2018,07,04,03,46,12.90
2018,07,04,03,47,12.90
2018,07,04,03,48,13.00
2018,07,04,03,49,13.10
2018,07,04,03,50,13.20
2018,07,04,03,51,13.20
2018,07,04,03,52,13.30
2018,07,04,03,53,13.30
2018,07,04,03,54,13.30
2018,07,04,03,55,13.30
2018,07,04,03,56,13.20
2018,07,04,03,57,13.20
2018,07,04,03,58,13.20
2018,07,04,03,59,13.20
2018,07,04,04,00,13.20
2018,07,04,04,01,13.20
2018,07,04,04,02,13.10
2018,07,04,04,03,13.10
2018,07,04,04,04,13.10
2018,07,04,04,05,13.00
2018,07,04,04,06,13.00
2018,07,04,04,07,12.90
2018,07,04,04,08,12.90
2018,07,04,04,09,12.90
2018,07,04,04,10,12.80
2018,07,04,04,11,12.80
2018,07,04,04,12,12.80
2018,07,04,04,13,12.80
2018,07,04,04,14,12.80
2018,07,04,04,15,12.80
2018,07,04,04,16,12.80
2018,07,04,04,17,12.80
2018,07,04,04,18,12.80
2018,07,04,04,19,12.80
2018,07,04,04,20,12.80
2018,07,04,04,21,12.80
2018,07,04,04,22,12.80
2018,07,04,04,23,12.80
2018,07,04,04,24,12.90
2018,07,04,04,25,12.90
2018,07,04,04,26,13.00
2018,07,04,04,27,13.00
2018,07,04,04,28,13.00
2018,07,04,04,29,13.00
2018,07,04,04,30,13.10
2018,07,04,04,31,13.10
2018,07,04,04,32,13.00
2018,07,04,04,33,13.00
2018,07,04,04,34,12.90
2018,07,04,04,35,12.90
2018,07,04,04,36,12.80
2018,07,04,04,37,12.70
2018,07,04,04,38,12.70
2018,07,04,04,39,12.60
2018,07,04,04,40,12.60
2018,07,04,04,41,12.50
2018,07,04,04,42,12.50
2018,07,04,04,43,12.40
2018,07,04,04,44,12.40
2018,07,04,04,45,12.40
2018,07,04,04,46,12.30
2018,07,04,04,47,12.30
2018,07,04,04,48,12.20
2018,07,04,04,49,12.20
2018,07,04,04,50,12.20
2018,07,04,04,51,12.20
2018,07,04,04,52,12.20
2018,07,04,04,53,12.10
2018,07,04,04,54,12.10
2018,07,04,04,55,12.10
2018,07,04,04,56,12.00
2018,07,04,04,57,12.00
2018,07,04,04,58,11.90
2018,07,04,04,59,11.90
2018,07,04,05,00,11.90
2018,07,04,05,01,11.90
2018,07,04,05,02,11.80
2018,07,04,05,03,11.80
2018,07,04,05,04,11.80
2018,07,04,05,05,11.80
2018,07,04,05,06,11.70
2018,07,04,05,07,11.70
2018,07,04,05,08,11.70
2018,07,04,05,09,11.70
2018,07,04,05,10,11.70
2018,07,04,05,11,11.70
2018,07,04,05,12,11.70
2018,07,04,05,13,11.70
2018,07,04,05,14,11.70
2018,07,04,05,15,11.70
2018,07,04,05,16,11.70
2018,07,04,05,17,11.70
2018,07,04,05,18,11.70
2018,07,04,05,19,11.70
2018,07,04,05,20,11.60
2018,07,04,05,21,11.60
2018,07,04,05,22,11.60
2018,07,04,05,23,11.60
2018,07,04,05,24,11.50
2018,07,04,05,25,11.50
2018,07,04,05,26,11.50
2018,07,04,05,27,11.40
2018,07,04,05,28,11.40
2018,07,04,05,29,11.40
2018,07,04,05,30,11.40
2018,07,04,05,31,11.30
2018,07,04,05,32,11.30
2018,07,04,05,33,11.30
2018,07,04,05,34,11.30
2018,07,04,05,35,11.30
2018,07,04,05,36,11.30
2018,07,04,05,37,11.30
2018,07,04,05,38,11.30
2018,07,04,05,39,11.30
2018,07,04,05,40,11.30
2018,07,04,05,41,11.30
2018,07,04,05,42,11.30
2018,07,04,05,43,11.30
2018,07,04,05,44,11.30
2018,07,04,05,45,11.30
2018,07,04,05,46,11.30
2018,07,04,05,47,11.30
2018,07,04,05,48,11.30
2018,07,04,05,49,11.40
2018,07,04,05,50,11.40
2018,07,04,05,51,11.30
2018,07,04,05,52,11.30
2018,07,04,05,53,11.30
2018,07,04,05,54,11.30
2018,07,04,05,55,11.30
2018,07,04,05,56,11.30
2018,07,04,05,57,11.30
2018,07,04,05,58,11.30
2018,07,04,05,59,11.30
2018,07,04,06,00,11.30
2018,07,04,06,01,11.30
2018,07,04,06,02,11.30
2018,07,04,06,03,11.30
2018,07,04,06,04,11.40
2018,07,04,06,05,11.40
2018,07,04,06,06,11.40
2018,07,04,06,07,11.40
2018,07,04,06,08,11.40
2018,07,04,06,09,11.40
2018,07,04,06,10,11.40
2018,07,04,06,11,11.50
2018,07,04,06,12,11.50
2018,07,04,06,13,11.50
2018,07,04,06,14,11.60
2018,07,04,06,15,11.60
2018,07,04,06,16,11.60
2018,07,04,06,17,11.60
2018,07,04,06,18,11.60
2018,07,04,06,19,11.60
2018,07,04,06,20,11.60
2018,07,04,06,21,11.60
2018,07,04,06,22,11.60
2018,07,04,06,23,11.60
2018,07,04,06,24,11.60
2018,07,04,06,25,11.60
2018,07,04,06,26,11.60
2018,07,04,06,27,11.60
2018,07,04,06,28,11.70
2018,07,04,06,29,11.70
2018,07,04,06,30,11.80
2018,07,04,06,31,11.80
2018,07,04,06,32,11.90
2018,07,04,06,33,11.90
2018,07,04,06,34,12.00
2018,07,04,06,35,12.00
2018,07,04,06,36,12.10
2018,07,04,06,37,12.10
2018,07,04,06,38,12.10
2018,07,04,06,39,12.20
2018,07,04,06,40,12.30
2018,07,04,06,41,12.40
2018,07,04,06,42,12.40
2018,07,04,06,43,12.50
2018,07,04,06,44,12.50
2018,07,04,06,45,12.50
2018,07,04,06,46,12.60
2018,07,04,06,47,12.60
2018,07,04,06,48,12.70
2018,07,04,06,49,12.70
2018,07,04,06,50,12.80
2018,07,04,06,51,12.80
2018,07,04,06,52,12.90
2018,07,04,06,53,12.90
2018,07,04,06,54,12.90
2018,07,04,06,55,13.00
2018,07,04,06,56,13.00
2018,07,04,06,57,13.00
2018,07,04,06,58,13.10
2018,07,04,06,59,13.10
2018,07,04,07,00,13.20
2018,07,04,07,01,13.20
2018,07,04,07,02,13.30
2018,07,04,07,03,13.30
2018,07,04,07,04,13.30
2018,07,04,07,05,13.40
2018,07,04,07,06,13.40
2018,07,04,07,07,13.50
2018,07,04,07,08,13.60
2018,07,04,07,09,13.60
2018,07,04,07,10,13.70
2018,07,04,07,11,13.70
2018,07,04,07,12,13.80
2018,07,04,07,13,13.80
2018,07,04,07,14,13.90
2018,07,04,07,15,14.00
2018,07,04,07,16,14.10
2018,07,04,07,17,14.20
2018,07,04,07,18,14.30
2018,07,04,07,19,14.40
2018,07,04,07,20,14.50
2018,07,04,07,21,14.60
2018,07,04,07,22,14.70
2018,07,04,07,23,14.80
2018,07,04,07,24,14.90
2018,07,04,07,25,15.00
2018,07,04,07,26,15.10
2018,07,04,07,27,15.20
2018,07,04,07,28,15.30
2018,07,04,07,29,15.30
2018,07,04,07,30,15.40
2018,07,04,07,31,15.50
2018,07,04,07,32,15.60
2018,07,04,07,33,15.70
2018,07,04,07,34,15.70
2018,07,04,07,35,15.70
2018,07,04,07,36,15.70
2018,07,04,07,37,15.80
2018,07,04,07,38,15.80
2018,07,04,07,39,15.80
2018,07,04,07,40,15.90
2018,07,04,07,41,16.00
2018,07,04,07,42,16.10
2018,07,04,07,43,16.20
2018,07,04,07,44,16.20
2018,07,04,07,45,16.30
2018,07,04,07,46,16.40
2018,07,04,07,47,16.40
2018,07,04,07,48,16.50
2018,07,04,07,49,16.60
2018,07,04,07,50,16.60
2018,07,04,07,51,16.60
2018,07,04,07,52,16.70
2018,07,04,07,53,16.70
2018,07,04,07,54,16.70
2018,07,04,07,55,16.70
2018,07,04,07,56,16.70
2018,07,04,07,57,16.70
2018,07,04,07,58,16.70
2018,07,04,07,59,16.70
2018,07,04,08,00,16.70
2018,07,04,08,01,16.70
2018,07,04,08,02,16.70
2018,07,04,08,03,16.70
2018,07,04,08,04,16.70
2018,07,04,08,05,16.70
2018,07,04,08,06,16.70
2018,07,04,08,07,16.70
2018,07,04,08,08,16.70
2018,07,04,08,09,16.70
2018,07,04,08,10,16.70
2018,07,04,08,11,16.80
2018,07,04,08,12,16.80
2018,07,04,08,13,16.80
2018,07,04,08,14,16.80
2018,07,04,08,15,16.80
2018,07,04,08,16,16.80
2018,07,04,08,17,16.80
2018,07,04,08,18,16.80
2018,07,04,08,19,16.80
2018,07,04,08,20,16.80
2018,07,04,08,21,16.90
2018,07,04,08,22,16.90
2018,07,04,08,23,16.90
2018,07,04,08,24,17.00
2018,07,04,08,25,17.00
2018,07,04,08,26,17.10
2018,07,04,08,27,17.20
2018,07,04,08,28,17.30
2018,07,04,08,29,17.30
2018,07,04,08,30,17.40
2018,07,04,08,31,17.50
2018,07,04,08,32,17.60
2018,07,04,08,33,17.60
2018,07,04,08,34,17.70
2018,07,04,08,35,17.70
2018,07,04,08,36,17.80
2018,07,04,08,37,17.90
2018,07,04,08,38,17.90
2018,07,04,08,39,18.00
2018,07,04,08,40,18.00
2018,07,04,08,41,18.10
2018,07,04,08,42,18.10
2018,07,04,08,43,18.20
2018,07,04,08,44,18.20
2018,07,04,08,45,18.30
2018,07,04,08,46,18.30
2018,07,04,08,47,18.40
2018,07,04,08,48,18.50
2018,07,04,08,49,18.60
2018,07,04,08,50,18.60
2018,07,04,08,51,18.60
2018,07,04,08,52,18.60
2018,07,04,08,53,18.60
2018,07,04,08,54,18.70
2018,07,04,08,55,18.70
2018,07,04,08,56,18.70
2018,07,04,08,57,18.70
2018,07,04,08,58,18.70
2018,07,04,08,59,18.70
2018,07,04,09,00,18.80
2018,07,04,09,01,18.80
2018,07,04,09,02,18.90
2018,07,04,09,03,18.90
2018,07,04,09,04,19.00
2018,07,04,09,05,19.00
2018,07,04,09,06,19.10
2018,07,04,09,07,19.20
2018,07,04,09,08,19.20
2018,07,04,09,09,19.30
2018,07,04,09,10,19.30
2018,07,04,09,11,19.30
2018,07,04,09,12,19.30
2018,07,04,09,13,19.30
2018,07,04,09,14,19.40
2018,07,04,09,15,19.50
2018,07,04,09,16,19.60
2018,07,04,09,17,19.70
2018,07,04,09,18,19.80
2018,07,04,09,19,19.80
2018,07,04,09,20,19.90
2018,07,04,09,21,20.00
2018,07,04,09,22,20.00
2018,07,04,09,23,20.10
2018,07,04,09,24,20.10
2018,07,04,09,25,20.10
2018,07,04,09,26,20.20
2018,07,04,09,27,20.20
2018,07,04,09,28,20.20
2018,07,04,09,29,20.20
2018,07,04,09,30,20.20
2018,07,04,09,31,20.20
2018,07,04,09,32,20.20
2018,07,04,09,33,20.20
2018,07,04,09,34,20.20
2018,07,04,09,35,20.20
2018,07,04,09,36,20.30
2018,07,04,09,37,20.30
2018,07,04,09,38,20.40
2018,07,04,09,39,20.50
2018,07,04,09,40,20.60
2018,07,04,09,41,20.70
2018,07,04,09,42,20.70
2018,07,04,09,43,20.80
2018,07,04,09,44,20.80
2018,07,04,09,45,20.80
2018,07,04,09,46,20.90
2018,07,04,09,47,20.90
2018,07,04,09,48,20.90
2018,07,04,09,49,20.90
2018,07,04,09,50,20.90
2018,07,04,09,51,20.90
2018,07,04,09,52,20.90
2018,07,04,09,53,20.80
2018,07,04,09,54,20.80
2018,07,04,09,55,20.80
2018,07,04,09,56,20.80
2018,07,04,09,57,20.70
2018,07,04,09,58,20.70
2018,07,04,09,59,20.70
2018,07,04,10,00,20.60
2018,07,04,10,01,20.60
2018,07,04,10,02,20.50
2018,07,04,10,03,20.40
2018,07,04,10,04,20.30
2018,07,04,10,05,20.30
2018,07,04,10,06,20.30
2018,07,04,10,07,20.20
2018,07,04,10,08,20.20
2018,07,04,10,09,20.10
2018,07,04,10,10,20.10
2018,07,04,10,11,20.10
2018,07,04,10,12,20.00
2018,07,04,10,13,20.00
2018,07,04,10,14,20.00
2018,07,04,10,15,20.00
2018,07,04,10,16,19.90
2018,07,04,10,17,19.90
2018,07,04,10,18,19.90
2018,07,04,10,19,19.90
2018,07,04,10,20,20.00
2018,07,04,10,21,19.90
2018,07,04,10,22,19.90
2018,07,04,10,23,19.90
2018,07,04,10,24,19.90
2018,07,04,10,25,20.00
2018,07,04,10,26,20.00
2018,07,04,10,27,20.10
2018,07,04,10,28,20.10
2018,07,04,10,29,20.10
2018,07,04,10,30,20.20
2018,07,04,10,31,20.30
2018,07,04,10,32,20.30
2018,07,04,10,33,20.30
2018,07,04,10,34,20.30
2018,07,04,10,35,20.40
2018,07,04,10,36,20.40
2018,07,04,10,37,20.40
2018,07,04,10,38,20.50
2018,07,04,10,39,20.60
2018,07,04,10,40,20.70
2018,07,04,10,41,20.90
2018,07,04,10,42,21.00
2018,07,04,10,43,21.10
2018,07,04,10,44,21.20
2018,07,04,10,45,21.30
2018,07,04,10,46,21.30
2018,07,04,10,47,21.30
2018,07,04,10,48,21.30
2018,07,04,10,49,21.20
2018,07,04,10,50,21.20
2018,07,04,10,51,21.10
2018,07,04,10,52,21.00
2018,07,04,10,53,20.90
2018,07,04,10,54,20.80
2018,07,04,10,55,20.80
2018,07,04,10,56,20.80
2018,07,04,10,57,20.80
2018,07,04,10,58,20.80
2018,07,04,10,59,20.80
2018,07,04,11,00,20.90
2018,07,04,11,01,21.00
2018,07,04,11,02,21.10
2018,07,04,11,03,21.20
2018,07,04,11,04,21.30
2018,07,04,11,05,21.30
2018,07,04,11,06,21.30
2018,07,04,11,07,21.30
2018,07,04,11,08,21.30
2018,07,04,11,09,21.30
2018,07,04,11,10,21.40
2018,07,04,11,11,21.50
2018,07,04,11,12,21.50
2018,07,04,11,13,21.60
2018,07,04,11,14,21.70
2018,07,04,11,15,21.80
2018,07,04,11,16,21.90
2018,07,04,11,17,22.00
2018,07,04,11,18,22.10
2018,07,04,11,19,22.20
2018,07,04,11,20,22.20
2018,07,04,11,21,22.20
2018,07,04,11,22,22.20
2018,07,04,11,23,22.20
2018,07,04,11,24,22.20
2018,07,04,11,25,22.20
2018,07,04,11,26,22.20
2018,07,04,11,27,22.30
2018,07,04,11,28,22.30
2018,07,04,11,29,22.30
2018,07,04,11,30,22.30
2018,07,04,11,31,22.20
2018,07,04,11,32,22.20
2018,07,04,11,33,22.20
2018,07,04,11,34,22.20
2018,07,04,11,35,22.30
2018,07,04,11,36,22.30
2018,07,04,11,37,22.40
2018,07,04,11,38,22.50
2018,07,04,11,39,22.50
2018,07,04,11,40,22.60
2018,07,04,11,41,22.70
2018,07,04,11,42,22.70
2018,07,04,11,43,22.70
2018,07,04,11,44,22.80
2018,07,04,11,45,22.80
2018,07,04,11,46,22.90
2018,07,04,11,47,23.00
2018,07,04,11,48,23.00
2018,07,04,11,49,23.00
2018,07,04,11,50,23.10
2018,07,04,11,51,23.10
2018,07,04,11,52,23.20
2018,07,04,11,53,23.20
2018,07,04,11,54,23.20
2018,07,04,11,55,23.20
2018,07,04,11,56,23.20
2018,07,04,11,57,23.20
2018,07,04,11,58,23.20
2018,07,04,11,59,23.20
2018,07,04,12,00,23.20
2018,07,04,12,01,23.20
2018,07,04,12,02,23.20
2018,07,04,12,03,23.20
2018,07,04,12,04,23.20
2018,07,04,12,05,23.30
2018,07,04,12,06,23.30
2018,07,04,12,07,23.40
2018,07,04,12,08,23.40
2018,07,04,12,09,23.40
2018,07,04,12,10,23.30
2018,07,04,12,11,23.30
2018,07,04,12,12,23.30
2018,07,04,12,13,23.30
2018,07,04,12,14,23.30
2018,07,04,12,15,23.40
2018,07,04,12,16,23.50
2018,07,04,12,17,23.60
2018,07,04,12,18,23.70
2018,07,04,12,19,23.70
2018,07,04,12,20,23.80
2018,07,04,12,21,23.80
2018,07,04,12,22,23.80
2018,07,04,12,23,23.70
2018,07,04,12,24,23.60
2018,07,04,12,25,23.60
2018,07,04,12,26,23.60
2018,07,04,12,27,23.50
2018,07,04,12,28,23.50
2018,07,04,12,29,23.60
2018,07,04,12,30,23.70
2018,07,04,12,31,23.80
2018,07,04,12,32,23.90
2018,07,04,12,33,24.00
2018,07,04,12,34,24.20
2018,07,04,12,35,24.30
2018,07,04,12,36,24.30
2018,07,04,12,37,24.40
2018,07,04,12,38,24.40
2018,07,04,12,39,24.40
2018,07,04,12,40,24.50
2018,07,04,12,41,24.60
2018,07,04,12,42,24.60
2018,07,04,12,43,24.50
2018,07,04,12,44,24.50
2018,07,04,12,45,24.40
2018,07,04,12,46,24.40
2018,07,04,12,47,24.40
2018,07,04,12,48,24.50
2018,07,04,12,49,24.50
2018,07,04,12,50,24.60
2018,07,04,12,51,24.70
2018,07,04,12,52,24.70
2018,07,04,12,53,24.70
2018,07,04,12,54,24.80
2018,07,04,12,55,24.90
2018,07,04,12,56,25.00
2018,07,04,12,57,25.10
2018,07,04,12,58,25.20
2018,07,04,12,59,25.20
2018,07,04,13,00,25.30
2018,07,04,13,01,25.40
2018,07,04,13,02,25.50
2018,07,04,13,03,25.50
2018,07,04,13,04,25.40
2018,07,04,13,05,25.40
2018,07,04,13,06,25.50
2018,07,04,13,07,25.60
2018,07,04,13,08,25.60
2018,07,04,13,09,25.70
2018,07,04,13,10,25.80
2018,07,04,13,11,25.90
2018,07,04,13,12,26.00
2018,07,04,13,13,26.10
2018,07,04,13,14,26.10
2018,07,04,13,15,26.20
2018,07,04,13,16,26.30
2018,07,04,13,17,26.30
2018,07,04,13,18,26.30
2018,07,04,13,19,26.30
2018,07,04,13,20,26.20
2018,07,04,13,21,26.20
2018,07,04,13,22,26.10
2018,07,04,13,23,26.00
2018,07,04,13,24,26.00
2018,07,04,13,25,25.90
2018,07,04,13,26,25.90
2018,07,04,13,27,25.80
2018,07,04,13,28,25.80
2018,07,04,13,29,25.80
2018,07,04,13,30,25.70
2018,07,04,13,31,25.70
2018,07,04,13,32,25.70
2018,07,04,13,33,25.70
2018,07,04,13,34,25.80
2018,07,04,13,35,25.80
2018,07,04,13,36,25.80
2018,07,04,13,37,25.80
2018,07,04,13,38,25.70
2018,07,04,13,39,25.70
2018,07,04,13,40,25.70
2018,07,04,13,41,25.70
2018,07,04,13,42,25.70
2018,07,04,13,43,25.70
2018,07,04,13,44,25.70
2018,07,04,13,45,25.70
2018,07,04,13,46,25.70
2018,07,04,13,47,25.70
2018,07,04,13,48,25.70
2018,07,04,13,49,25.70
2018,07,04,13,50,25.70
2018,07,04,13,51,25.80
2018,07,04,13,52,25.80
2018,07,04,13,53,25.90
2018,07,04,13,54,25.90
2018,07,04,13,55,26.00
2018,07,04,13,56,26.00
2018,07,04,13,57,26.10
2018,07,04,13,58,26.10
2018,07,04,13,59,26.10
2018,07,04,14,00,26.10
2018,07,04,14,01,26.10
2018,07,04,14,02,26.10
2018,07,04,14,03,26.10
2018,07,04,14,04,26.00
2018,07,04,14,05,26.00
2018,07,04,14,06,25.90
2018,07,04,14,07,25.90
2018,07,04,14,08,25.90
2018,07,04,14,09,25.90
2018,07,04,14,10,25.90
2018,07,04,14,11,25.90
2018,07,04,14,12,26.00
2018,07,04,14,13,26.00
2018,07,04,14,14,26.10
2018,07,04,14,15,26.10
2018,07,04,14,16,26.20
2018,07,04,14,17,26.20
2018,07,04,14,18,26.30
2018,07,04,14,19,26.30
2018,07,04,14,20,26.30
2018,07,04,14,21,26.30
2018,07,04,14,22,26.40
2018,07,04,14,23,26.40
2018,07,04,14,24,26.40
2018,07,04,14,25,26.50
2018,07,04,14,26,26.50
2018,07,04,14,27,26.60
2018,07,04,14,28,26.60
2018,07,04,14,29,26.50
2018,07,04,14,30,26.50
2018,07,04,14,31,26.50
2018,07,04,14,32,26.50
2018,07,04,14,33,26.60
2018,07,04,14,34,26.60
2018,07,04,14,35,26.60
2018,07,04,14,36,26.60
2018,07,04,14,37,26.60
2018,07,04,14,38,26.60
2018,07,04,14,39,26.70
2018,07,04,14,40,26.70
2018,07,04,14,41,26.70
2018,07,04,14,42,26.70
2018,07,04,14,43,26.70
2018,07,04,14,44,26.80
2018,07,04,14,45,26.80
2018,07,04,14,46,26.80
2018,07,04,14,47,26.80
2018,07,04,14,48,26.80
2018,07,04,14,49,26.90
2018,07,04,14,50,26.80
2018,07,04,14,51,26.80
2018,07,04,14,52,26.70
2018,07,04,14,53,26.70
2018,07,04,14,54,26.60
2018,07,04,14,55,26.60
2018,07,04,14,56,26.60
2018,07,04,14,57,26.70
2018,07,04,14,58,26.70
2018,07,04,14,59,26.80
2018,07,04,15,00,26.80
2018,07,04,15,01,26.90
2018,07,04,15,02,26.90
2018,07,04,15,03,27.00
2018,07,04,15,04,27.00
2018,07,04,15,05,27.10
2018,07,04,15,06,27.10
2018,07,04,15,07,27.10
2018,07,04,15,08,27.00
2018,07,04,15,09,27.00
2018,07,04,15,10,26.90
2018,07,04,15,11,26.90
2018,07,04,15,12,26.90
2018,07,04,15,13,27.00
2018,07,04,15,14,27.00
2018,07,04,15,15,27.10
2018,07,04,15,16,27.10
2018,07,04,15,17,27.00
2018,07,04,15,18,27.00
2018,07,04,15,19,27.10
2018,07,04,15,20,27.10
2018,07,04,15,21,27.20
2018,07,04,15,22,27.20
2018,07,04,15,23,27.20
2018,07,04,15,24,27.30
2018,07,04,15,25,27.30
2018,07,04,15,26,27.30
2018,07,04,15,27,27.30
2018,07,04,15,28,27.20
2018,07,04,15,29,27.20
2018,07,04,15,30,27.30
2018,07,04,15,31,27.30
2018,07,04,15,32,27.40
2018,07,04,15,33,27.50
2018,07,04,15,34,27.50
2018,07,04,15,35,27.50
2018,07,04,15,36,27.60
2018,07,04,15,37,27.60
2018,07,04,15,38,27.60
2018,07,04,15,39,27.70
2018,07,04,15,40,27.70
2018,07,04,15,41,27.70
2018,07,04,15,42,27.70
2018,07,04,15,43,27.70
2018,07,04,15,44,27.70
2018,07,04,15,45,27.70
2018,07,04,15,46,27.70
2018,07,04,15,47,27.70
2018,07,04,15,48,27.80
2018,07,04,15,49,27.80
2018,07,04,15,50,27.80
2018,07,04,15,51,27.80
2018,07,04,15,52,27.80
2018,07,04,15,53,27.80
2018,07,04,15,54,27.80
2018,07,04,15,55,27.80
2018,07,04,15,56,27.80
2018,07,04,15,57,27.70
2018,07,04,15,58,27.70
2018,07,04,15,59,27.70
2018,07,04,16,00,27.70
2018,07,04,16,01,27.70
2018,07,04,16,02,27.70
2018,07,04,16,03,27.70
2018,07,04,16,04,27.70
2018,07,04,16,05,27.70
2018,07,04,16,06,27.60
2018,07,04,16,07,27.50
2018,07,04,16,08,27.40
2018,07,04,16,09,27.30
2018,07,04,16,10,27.30
2018,07,04,16,11,27.20
2018,07,04,16,12,27.20
2018,07,04,16,13,27.20
2018,07,04,16,14,27.10
2018,07,04,16,15,27.10
2018,07,04,16,16,27.10
2018,07,04,16,17,27.10
2018,07,04,16,18,27.10
2018,07,04,16,19,27.10
2018,07,04,16,20,27.10
2018,07,04,16,21,27.20
2018,07,04,16,22,27.10
2018,07,04,16,23,27.10
2018,07,04,16,24,27.10
2018,07,04,16,25,27.10
2018,07,04,16,26,27.20
2018,07,04,16,27,27.20
2018,07,04,16,28,27.30
2018,07,04,16,29,27.30
2018,07,04,16,30,27.30
2018,07,04,16,31,27.20
2018,07,04,16,32,27.10
2018,07,04,16,33,27.00
2018,07,04,16,34,27.00
2018,07,04,16,35,26.90
2018,07,04,16,36,26.90
2018,07,04,16,37,26.90
2018,07,04,16,38,27.00
2018,07,04,16,39,27.00
2018,07,04,16,40,27.00
2018,07,04,16,41,27.00
2018,07,04,16,42,27.10
2018,07,04,16,43,27.10
2018,07,04,16,44,27.10
2018,07,04,16,45,27.10
2018,07,04,16,46,27.20
2018,07,04,16,47,27.20
2018,07,04,16,48,27.20
2018,07,04,16,49,27.20
2018,07,04,16,50,27.20
2018,07,04,16,51,27.30
2018,07,04,16,52,27.30
2018,07,04,16,53,27.30
2018,07,04,16,54,27.20
2018,07,04,16,55,27.20
2018,07,04,16,56,27.10
2018,07,04,16,57,27.00
2018,07,04,16,58,27.00
2018,07,04,16,59,26.90
2018,07,04,17,00,26.90
2018,07,04,17,01,26.90
2018,07,04,17,02,26.90
2018,07,04,17,03,26.90
2018,07,04,17,04,26.80
2018,07,04,17,05,26.80
2018,07,04,17,06,26.80
2018,07,04,17,07,26.80
2018,07,04,17,08,26.80
2018,07,04,17,09,26.70
2018,07,04,17,10,26.70
2018,07,04,17,11,26.70
2018,07,04,17,12,26.70
2018,07,04,17,13,26.70
2018,07,04,17,14,26.70
2018,07,04,17,15,26.70
2018,07,04,17,16,26.70
2018,07,04,17,17,26.70
2018,07,04,17,18,26.70
2018,07,04,17,19,26.70